sat.trackr.live / text

‹ back to catalog

STARLINK-6314

NORAD 56538 · 2023-065AM

PAYLOAD ACTIVE UNKNOWN

§ Identity

Operator
Country
US
Launch date
2023-05-14
Launch site
AFETR
Launch vehicle
Mass (kg)
RCS (m²)

Purposes: comms

External: N2YO · Heavens-Above · Gunter

§ Orbital elements

Epoch: 2026-05-24T23:33:59.387904Z

Period
94.27 min
Inclination
43.0002°
Eccentricity
0.0000995
Mean motion
15.27572871 rev/d
Perigee alt
482.4 km
Apogee alt
483.8 km
Semi-major
6,861.2 km
B*
8.6212e-6
RAAN
127.2394°
Arg perigee
268.1400°
Mean anomaly
91.9337°
Rev number
16,843

§ Raw data

STARLINK-63141 56538U 23065AM  26144.98193736 -.00000025  00000+0  86212-5 0  99972 56538  43.0002 127.2394 0000995 268.1400  91.9337 15.27572871168439

JSON: /api/v1/satellites/56538 · /tle

For live sub-satellite position, see the globe view (requires WebGL).

§ Visibility from observer

Set your observer location to see the next 7 days of passes ≥ 10°. The values pass through the URL so the page stays shareable.

No JS? Fill the form by hand. The geolocation button needs JavaScript.